Location: Molveno
(46.1500°N, 10.9667°E)
Time: 16:44:19
(UTC+00:00)

EO 1 Del DPAF - Pass Details

Date: 05 July 2020
Orbit: 512 x 518 km, 98.0° (Epoch: 11 August)

Event Time Altitude Azimuth Distance (km) Brightness Sun altitude
Rises 22:38:10 0° 7° (N) 2,644 8.1 -20.5°
Reaches altitude 10° 22:40:19 10° 1° (N) 1,751 7.0 -20.6°
Maximum altitude 22:43:55 45° 289° (WNW) 714 4.0 -20.7°
Enters shadow 22:44:55 36° 247° (WSW) 837 4.1 -20.7°
